DW9643 Weather Reports


time (UTC)temp
C
wind
direction
speed
KPH
gust
KPH
rain 1hr
cm
rain 24hr
cm
rain mn
cm
humidity
%
barometer
mb
20260507154601 12 8 9.7 22.5 0.00 0.03 0.03 49 1017.2
20260507153110 12 0 6.4 19.3 0.00 0.03 0.03 51 1017.2
20260507151600 12 342 9.7 22.5 0.00 0.03 0.03 45 1017.0
20260507150058 12 332 4.8 17.7 0.00 0.03 0.03 53 1017.0
20260507144559 11 332 6.4 17.7 0.00 0.03 0.03 51 1017.1
20260507143107 11 308 4.8 16.1 0.00 0.03 0.03 54 1017.3
20260507141557 10 342 9.7 17.7 0.00 0.03 0.03 51 1017.3
20260507140057 10 307 6.4 19.3 0.00 0.03 0.03 52 1017.3
20260507134607 9 25 6.4 17.7 0.00 0.03 0.03 55 1017.3
20260507133132 9 308 8.0 16.1 0.00 0.03 0.03 61 1017.2
20260507131557 8 312 6.4 17.7 0.00 0.03 0.03 61 1017.2
20260507130110 7 0 3.2 11.3 0.00 0.03 0.03 74 1017.0
20260507124559 6 12 1.6 8.0 0.00 0.03 0.03 84 1017.1
20260507123058 5 0 0.0 0.0 0.00 0.03 0.03 91 1017.2
20260507121616 4 0 0.0 6.4 0.00 0.03 0.03 93 1017.2
20260507120105 4 326 1.6 4.8 0.03 0.03 0.03 93 1017.2
20260507114639 3 0 0.0 0.0 0.03 0.03 0.03 94 1017.3
20260507113101 3 0 0.0 0.0 0.03 0.03 0.03 93 1017.2
20260507111603 3 0 0.0 0.0 0.03 0.03 0.03 93 1017.1
20260507110100 3 0 0.0 0.0 0.00 0.00 0.00 93 1016.9
20260507104559 3 0 0.0 0.0 0.00 0.00 0.00 92 1016.6
20260507103100 3 0 0.0 0.0 0.00 0.00 0.00 92 1016.5
20260507101614 3 0 0.0 0.0 0.00 0.00 0.00 92 1016.6
20260507100104 3 0 0.0 0.0 0.00 0.00 0.00 93 1016.6
20260507094605 3 0 0.0 3.2 0.00 0.00 0.00 92 1016.6
20260507093058 3 0 0.0 3.2 0.00 0.00 0.00 93 1016.6
20260507091559 3 0 0.0 0.0 0.00 0.00 0.00 92 1016.4
20260507084602 3 0 0.0 0.0 0.00 0.03 0.00 92 1016.4
20260507083100 4 0 0.0 0.0 0.00 0.03 0.00 92 1016.3
20260507081558 4 0 0.0 0.0 0.00 0.03 0.00 92 1016.2
20260507080118 4 0 0.0 0.0 0.00 0.03 0.00 92 1016.2
20260507074559 5 0 0.0 0.0 0.00 0.20 0.00 92 1016.2
20260507073106 5 0 0.0 0.0 0.00 0.20 0.00 91 1016.2
20260507071557 5 0 0.0 0.0 0.00 0.20 0.00 91 1016.2
20260507070100 5 0 0.0 0.0 0.00 0.20 0.00 91 1016.2
20260507064600 5 0 0.0 0.0 0.00 0.84 0.00 91 1016.2
20260507063106 5 0 0.0 0.0 0.00 0.84 0.00 91 1016.3
20260507061558 5 0 0.0 0.0 0.00 0.84 0.00 91 1016.4
20260507060058 6 0 0.0 0.0 0.00 0.84 0.00 91 1016.3
20260507054559 6 0 0.0 0.0 0.00 1.45 0.00 91 1016.3
20260507053113 6 0 0.0 0.0 0.00 1.45 0.00 90 1016.3
20260507051605 6 0 0.0 0.0 0.00 1.45 0.00 90 1016.3
20260507044559 6 0 0.0 0.0 0.00 1.73 0.00 89 1016.3
20260507043100 7 0 0.0 0.0 0.00 1.73 0.00 89 1016.5
20260507041600 7 0 0.0 0.0 0.00 1.73 0.00 88 1016.4
20260507034601 7 0 0.0 0.0 0.00 1.83 1.73 87 1016.2
20260507033110 7 0 0.0 0.0 0.00 1.83 1.73 85 1016.4
20260507031603 8 0 0.0 0.0 0.00 1.83 1.73 83 1016.4
20260507030058 8 0 0.0 0.0 0.00 1.83 1.73 81 1016.4
20260507024608 8 0 0.0 0.0 0.00 2.11 1.73 80 1016.3
20260507023059 9 0 0.0 0.0 0.00 2.11 1.73 77 1016.3
20260507021606 9 0 0.0 0.0 0.00 2.11 1.73 76 1016.2
20260507020114 10 0 0.0 0.0 0.00 2.11 1.73 74 1016.1
20260507014605 10 0 0.0 0.0 0.00 2.44 1.73 72 1016.0
20260507013101 11 0 0.0 0.0 0.00 2.44 1.73 68 1015.9
20260507011558 11 0 0.0 3.2 0.00 2.44 1.73 65 1015.6
20260507004607 12 325 1.6 4.8 0.00 2.44 1.73 61 1015.5
20260507003100 13 324 1.6 8.0 0.00 2.44 1.73 58 1015.4
20260507001559 13 320 1.6 14.5 0.00 2.44 1.73 56 1015.4
20260506234559 13 344 4.8 14.5 0.00 2.49 1.73 57 1015.1
20260506233112 13 320 6.4 17.7 0.00 2.49 1.73 57 1014.7
20260506231603 14 336 6.4 14.5 0.00 2.49 1.73 56 1014.6
20260506230103 15 337 3.2 19.3 0.00 2.49 1.73 55 1014.2
20260506224607 14 7 1.6 12.9 0.00 2.51 1.73 55 1014.5
20260506223058 14 336 4.8 12.9 0.00 2.51 1.73 54 1014.5
20260506221609 14 275 3.2 14.5 0.00 2.51 1.73 52 1014.8
20260506220057 14 332 6.4 16.1 0.00 2.51 1.73 54 1014.8
20260506214557 15 305 4.8 14.5 0.00 2.59 1.73 50 1015.1
20260506213124 15 347 4.8 16.1 0.00 2.59 1.73 54 1015.0
20260506211558 15 350 6.4 14.5 0.00 2.59 1.73 49 1014.8
20260506210058 15 0 4.8 17.7 0.00 2.59 1.73 48 1014.8
20260506204559 15 338 4.8 20.9 0.00 2.84 1.73 49 1014.6
20260506203058 15 334 11.3 22.5 0.00 2.84 1.73 51 1014.6
20260506201600 15 309 8.0 20.9 0.00 2.84 1.73 54 1014.7
20260506200059 15 334 8.0 17.7 0.00 2.84 1.73 55 1014.6
20260506194602 15 5 8.0 17.7 0.00 3.38 1.73 54 1014.6
20260506193057 15 239 3.2 11.3 0.00 3.38 1.73 59 1014.5
20260506191558 16 330 4.8 12.9 0.00 3.38 1.73 53 1014.2
20260506190106 16 338 6.4 16.1 0.00 3.38 1.73 55 1014.1
20260506184609 15 20 6.4 16.1 0.00 3.38 1.73 56 1014.2
20260506183105 15 0 1.6 17.7 0.00 3.38 1.73 60 1014.1
20260506181623 15 344 3.2 17.7 0.00 3.38 1.73 61 1014.1
20260506180058 15 8 8.0 19.3 0.00 3.38 1.73 59 1014.2
20260506174559 15 337 8.0 19.3 0.00 3.38 1.73 60 1014.6
20260506173108 14 335 6.4 16.1 0.00 3.38 1.73 57 1014.8
20260506171605 15 74 3.2 19.3 0.00 3.38 1.73 60 1014.8
20260506170059 14 4 4.8 16.1 0.00 3.38 1.73 69 1015.1
20260506164613 13 4 6.4 22.5 0.00 3.38 1.73 63 1015.1
20260506163104 12 350 6.4 14.5 0.00 3.38 1.73 68 1015.2
20260506161557 12 9 6.4 17.7 0.00 3.38 1.73 65 1014.9
20260506160109 12 359 9.7 19.3 0.00 3.38 1.73 63 1014.9